sat.trackr.live / text

‹ back to catalog

STARLINK-5701

NORAD 55487 · 2023-015AQ

PAYLOAD ACTIVE UNKNOWN

§ Identity

Operator
Country
US
Launch date
2023-02-02
Launch site
AFETR
Launch vehicle
Mass (kg)
RCS (m²)

Purposes: comms

External: N2YO · Heavens-Above · Gunter

§ Orbital elements

Epoch: 2026-05-25T01:15:53.006112Z

Period
94.27 min
Inclination
43.0032°
Eccentricity
0.0001007
Mean motion
15.27575713 rev/d
Perigee alt
482.4 km
Apogee alt
483.8 km
Semi-major
6,861.2 km
B*
1.0932e-5
RAAN
268.5071°
Arg perigee
281.1492°
Mean anomaly
78.9246°
Rev number
18,227

§ Raw data

STARLINK-57011 55487U 23015AQ  26145.05269683  .00000039  00000+0  10932-4 0  99972 55487  43.0032 268.5071 0001007 281.1492  78.9246 15.27575713182276

JSON: /api/v1/satellites/55487 · /tle

For live sub-satellite position, see the globe view (requires WebGL).

§ Visibility from observer

Set your observer location to see the next 7 days of passes ≥ 10°. The values pass through the URL so the page stays shareable.

No JS? Fill the form by hand. The geolocation button needs JavaScript.